EW1407 Weather Reports


time (UTC)temp
F
wind
direction
speed
knots
gust
knots
rain 1hr
in
rain 24hr
in
rain mn
in
humidity
%
barometer
mb
20260509053519 52 175 2.6 2.6 0.00 0.00 0.00 95 1007.6
20260509053016 52 188 2.6 2.6 0.00 0.00 0.00 95 1007.9
20260509052514 52 165 1.7 3.5 0.00 0.00 0.00 94 1007.6
20260509052012 52 171 1.7 1.7 0.00 0.00 0.00 94 1007.7
20260509051509 52 184 1.7 2.6 0.00 0.00 0.00 94 1007.7
20260509051006 52 165 1.7 2.6 0.00 0.00 0.00 94 1008.0
20260509050502 52 160 1.7 2.6 0.00 0.00 0.00 94 1007.8
20260509045959 52 157 3.5 3.5 0.00 0.00 0.00 93 1007.8
20260509045456 52 162 1.7 3.5 0.00 0.00 0.00 93 1007.9
20260509044953 52 153 3.5 3.5 0.00 0.00 0.00 93 1007.9
20260509044451 52 156 2.6 2.6 0.00 0.00 0.00 93 1007.8
20260509043948 53 166 2.6 2.6 0.00 0.00 0.00 91 1007.8
20260509043444 53 166 2.6 2.6 0.00 0.00 0.00 91 1007.8
20260509042939 53 166 2.6 2.6 0.00 0.00 0.00 91 1008.0
20260509042436 53 166 2.6 2.6 0.00 0.00 0.00 91 1007.9
20260509041933 53 166 2.6 2.6 0.00 0.00 0.00 91 1007.8
20260509041430 53 166 2.6 2.6 0.00 0.00 0.00 91 1008.0
20260509040928 53 166 2.6 2.6 0.00 0.00 0.00 91 1007.9
20260509040426 53 192 1.7 3.5 0.00 0.00 0.00 91 1008.2
20260509035922 53 188 1.7 2.6 0.00 0.09 0.09 91 1007.9
20260509035419 53 175 1.7 2.6 0.00 0.09 0.09 91 1007.9
20260509034915 54 168 1.7 2.6 0.00 0.09 0.09 91 1008.2
20260509034414 54 173 1.7 3.5 0.00 0.09 0.09 91 1008.2
20260509033910 54 150 2.6 2.6 0.00 0.09 0.09 90 1008.2
20260509033407 54 172 1.7 1.7 0.00 0.09 0.09 91 1008.3
20260509032904 54 174 1.7 1.7 0.00 0.09 0.09 90 1008.3
20260509032401 54 200 1.7 2.6 0.00 0.09 0.09 90 1008.4
20260509031859 54 187 2.6 2.6 0.00 0.09 0.09 90 1008.5
20260509031356 54 167 0.9 1.7 0.00 0.09 0.09 89 1008.4
20260509030854 55 189 1.7 1.7 0.00 0.09 0.09 89 1008.5
20260509030351 55 195 1.7 1.7 0.00 0.09 0.09 88 1008.4
20260509025848 55 220 1.7 1.7 0.00 0.09 0.09 87 1008.4
20260509025343 55 220 1.7 1.7 0.00 0.09 0.09 87 1008.6
20260509024839 55 221 1.7 2.6 0.00 0.09 0.09 87 1008.7
20260509024335 55 209 1.7 2.6 0.00 0.09 0.09 86 1008.6
20260509023833 55 197 1.7 1.7 0.00 0.09 0.09 86 1008.5
20260509023330 56 197 1.7 1.7 0.02 0.09 0.09 85 1008.5
20260509022827 56 197 1.7 1.7 0.02 0.09 0.09 85 1008.6
20260509022324 56 197 1.7 1.7 0.00 0.09 0.09 85 1008.6
20260509021820 56 197 1.7 1.7 0.00 0.09 0.09 85 1008.5
20260509021318 56 195 1.7 2.6 0.00 0.09 0.09 85 1008.6
20260509020815 56 193 1.7 1.7 0.00 0.09 0.09 85 1008.5
20260509020313 56 210 1.7 1.7 0.00 0.09 0.09 85 1008.6
20260509015811 56 216 2.6 3.5 0.00 0.09 0.09 84 1008.4
20260509015309 57 232 6.1 7.0 0.00 0.09 0.09 83 1008.4
20260509014805 57 232 6.1 7.0 0.00 0.09 0.09 83 1008.4
20260509014302 57 232 6.1 7.0 0.00 0.09 0.09 83 1008.5
20260509013758 57 222 5.2 9.6 0.00 0.09 0.09 82 1008.4
20260509013254 57 215 5.2 7.8 0.00 0.09 0.09 83 1008.3
20260509012751 57 223 4.3 5.2 0.00 0.09 0.09 83 1008.4
20260509012248 56 228 4.3 7.0 0.00 0.09 0.09 83 1008.4
20260509011745 56 209 2.6 4.3 0.00 0.09 0.09 83 1008.2
20260509011243 56 220 2.6 3.5 0.00 0.09 0.09 83 1008.1
20260509010740 57 209 3.5 4.3 0.00 0.09 0.09 82 1008.1
20260509010237 57 242 4.3 6.1 0.00 0.09 0.09 81 1008.1
20260509005735 57 242 4.3 6.1 0.00 0.09 0.09 81 1007.9
20260509005232 57 242 4.3 6.1 0.00 0.09 0.09 81 1007.9
20260509004731 57 242 4.3 6.1 0.00 0.09 0.09 81 1008.1
20260509004229 57 203 3.5 7.0 0.00 0.09 0.09 81 1008.1
20260509003727 57 229 3.5 4.3 0.00 0.09 0.09 81 1008.2
20260509003224 58 218 4.3 5.2 0.00 0.09 0.09 81 1007.9
20260509002721 58 225 5.2 5.2 0.00 0.09 0.09 81 1007.8
20260509002219 58 203 6.1 8.7 0.00 0.09 0.09 80 1007.9
20260509001717 59 217 7.0 9.6 0.00 0.09 0.09 80 1008.0
20260509001212 59 232 7.0 9.6 0.00 0.09 0.09 79 1008.0
20260509000711 59 211 7.8 8.7 0.00 0.09 0.09 78 1007.8
20260509000207 59 223 4.3 4.3 0.00 0.09 0.09 77 1007.9
20260508235704 59 212 3.5 3.5 0.00 0.09 0.09 78 1007.9
20260508235201 59 212 3.5 5.2 0.00 0.09 0.09 78 1008.0
20260508234658 59 218 4.3 7.0 0.00 0.09 0.09 77 1008.0
20260508234154 59 208 4.3 5.2 0.00 0.09 0.09 78 1008.3
20260508233654 59 299 1.7 3.5 0.00 0.09 0.09 77 1008.0
20260508233151 59 209 5.2 6.1 0.00 0.09 0.09 76 1008.0
20260508232648 59 219 7.0 10.4 0.00 0.09 0.09 76 1007.8
20260508232145 60 212 2.6 7.8 0.00 0.09 0.09 76 1008.0
20260508231643 60 231 7.8 9.6 0.00 0.09 0.09 75 1008.0
20260508231139 59 222 8.7 11.3 0.00 0.09 0.09 75 1008.3
20260508230636 59 233 7.8 12.2 0.00 0.09 0.09 75 1008.0
20260508230133 59 219 7.0 8.7 0.00 0.09 0.09 75 1008.1
20260508225631 59 224 8.7 11.3 0.00 0.09 0.09 74 1008.1
20260508225126 59 227 5.2 8.7 0.00 0.09 0.09 74 1008.2
20260508224624 59 239 7.0 14.8 0.00 0.09 0.09 73 1008.2
20260508224122 60 209 5.2 13.0 0.00 0.09 0.09 74 1008.1
20260508223619 60 227 9.6 10.4 0.00 0.09 0.09 72 1008.1
20260508223116 60 236 7.8 8.7 0.00 0.09 0.09 71 1008.1
20260508222613 60 214 9.6 12.2 0.02 0.09 0.09 71 1008.1
20260508222110 60 220 12.2 12.2 0.02 0.09 0.09 71 1007.9
20260508221607 60 238 7.8 14.8 0.00 0.09 0.09 70 1008.1
20260508221103 60 209 10.4 13.0 0.00 0.09 0.09 72 1008.1
20260508220559 60 217 3.5 6.1 0.00 0.09 0.09 73 1008.4
20260508220055 60 220 7.0 7.8 0.00 0.09 0.09 73 1008.2
20260508215553 60 238 11.3 12.2 0.00 0.09 0.09 72 1008.3
20260508215049 60 230 3.5 4.3 0.00 0.09 0.09 74 1008.1
20260508214547 60 198 5.2 6.1 0.00 0.09 0.09 73 1008.3
20260508214043 59 195 3.5 9.6 0.00 0.09 0.09 73 1008.2
20260508213541 60 214 9.6 11.3 0.00 0.09 0.09 73 1008.1
20260508213036 60 218 8.7 10.4 0.00 0.09 0.09 71 1008.4
20260508212533 60 213 8.7 10.4 0.00 0.09 0.09 71 1008.4
20260508212029 60 222 6.1 8.7 0.00 0.09 0.09 71 1008.3
20260508211525 60 229 5.2 11.3 0.00 0.09 0.09 71 1008.4
20260508211022 60 235 9.6 11.3 0.00 0.09 0.09 70 1008.2
20260508210518 60 249 7.0 11.3 0.00 0.09 0.09 69 1008.2
20260508210016 60 260 7.0 8.7 0.00 0.09 0.09 70 1008.4
20260508205512 60 197 3.5 5.2 0.00 0.09 0.09 72 1008.3
20260508205008 60 180 3.5 5.2 0.00 0.09 0.09 70 1008.5
20260508204506 60 183 4.3 5.2 0.00 0.09 0.09 70 1008.6
20260508204001 60 186 2.6 3.5 0.00 0.09 0.09 68 1008.6
20260508203457 60 157 4.3 5.2 0.00 0.09 0.09 71 1008.7
20260508202953 60 194 1.7 4.3 0.00 0.09 0.09 69 1008.9
20260508202451 60 196 3.5 4.3 0.00 0.09 0.09 70 1008.9
20260508201948 60 192 3.5 4.3 0.00 0.09 0.09 68 1009.0
20260508201444 60 211 2.6 5.2 0.02 0.09 0.09 67 1009.0
20260508200941 60 195 3.5 5.2 0.02 0.09 0.09 71 1009.1
20260508200439 61 198 3.5 6.1 0.00 0.08 0.08 66 1009.2
20260508195938 61 196 5.2 5.2 0.00 0.08 0.08 67 1009.2
20260508195436 60 194 3.5 6.1 0.00 0.08 0.08 67 1009.1
20260508194932 60 185 2.6 4.3 0.00 0.08 0.08 69 1009.3
20260508194429 60 174 3.5 5.2 0.00 0.08 0.08 71 1009.4
20260508193926 59 210 2.6 4.3 0.00 0.08 0.08 73 1009.6
20260508193423 58 150 2.6 4.3 0.00 0.08 0.08 74 1009.5
20260508192919 59 161 5.2 5.2 0.00 0.08 0.08 74 1009.7
20260508192417 59 202 2.6 4.3 0.00 0.08 0.08 73 1009.7
20260508191913 59 152 1.7 1.7 0.00 0.08 0.08 77 1009.9
20260508191411 58 130 1.7 2.6 0.00 0.08 0.08 78 1010.0
20260508190908 57 196 1.7 2.6 0.00 0.08 0.08 79 1009.9
20260508190405 57 193 0.9 3.5 0.00 0.08 0.08 79 1010.2
20260508185901 57 180 1.7 2.6 0.00 0.08 0.08 80 1010.4
20260508185359 57 0 0.0 0.0 0.00 0.08 0.08 80 1010.5
20260508184855 56 239 0.9 1.7 0.00 0.08 0.08 81 1010.5
20260508184353 56 162 1.7 2.6 0.00 0.08 0.08 82 1010.5
20260508183849 56 172 1.7 3.5 0.00 0.08 0.08 82 1010.9
20260508183346 55 167 1.7 2.6 0.00 0.08 0.08 82 1010.7
20260508182842 55 177 1.7 3.5 0.00 0.08 0.08 82 1010.7
20260508182339 55 198 3.5 4.3 0.00 0.08 0.08 82 1010.9
20260508181834 55 181 3.5 5.2 0.02 0.08 0.08 82 1010.9
20260508181331 55 174 3.5 3.5 0.02 0.08 0.08 83 1010.9
20260508180828 55 171 2.6 3.5 0.00 0.08 0.08 82 1011.0
20260508180325 55 202 1.7 2.6 0.00 0.08 0.08 82 1010.9
20260508175821 55 205 3.5 3.5 0.00 0.08 0.08 82 1010.7
20260508175318 55 218 1.7 4.3 0.00 0.08 0.08 81 1011.0
20260508174816 55 172 2.6 3.5 0.00 0.08 0.08 82 1011.1
20260508174313 55 169 2.6 2.6 0.00 0.08 0.08 82 1011.3
20260508173809 54 189 1.7 3.5 0.00 0.08 0.08 81 1011.4
20260508173307 54 191 2.6 3.5 0.00 0.08 0.08 82 1011.6
20260508172802 54 176 2.6 3.5 0.00 0.08 0.08 82 1011.5
20260508172300 54 208 1.7 2.6 0.00 0.08 0.08 82 1011.6
20260508171755 54 195 1.7 3.5 0.00 0.08 0.08 82 1011.5
20260508171252 54 188 2.6 4.3 0.00 0.08 0.08 82 1011.5
20260508170749 54 220 3.5 5.2 0.00 0.08 0.08 83 1011.6
20260508170247 54 202 5.2 5.2 0.00 0.08 0.08 82 1011.8
20260508165744 54 220 3.5 5.2 0.00 0.08 0.08 82 1011.7
20260508165241 55 174 3.5 4.3 0.00 0.08 0.08 81 1011.8
20260508164737 54 208 2.6 5.2 0.00 0.08 0.08 82 1011.8
20260508164234 54 228 4.3 5.2 0.00 0.08 0.08 83 1011.9
20260508163732 54 231 5.2 7.0 0.00 0.08 0.08 81 1012.1
20260508163229 55 219 5.2 7.8 0.00 0.08 0.08 81 1012.2
20260508162725 55 204 3.5 7.0 0.02 0.08 0.08 81 1012.2
20260508162222 54 228 7.0 7.8 0.02 0.08 0.08 82 1012.3
20260508161719 55 229 7.0 8.7 0.00 0.07 0.07 80 1012.4
20260508161216 55 238 3.5 5.2 0.00 0.07 0.07 82 1012.2
20260508160714 54 219 3.5 6.1 0.00 0.07 0.07 82 1012.3
20260508160212 54 220 6.1 7.8 0.00 0.07 0.07 83 1012.3
20260508155708 54 220 6.1 8.7 0.00 0.07 0.07 83 1012.3
20260508155206 55 227 5.2 7.0 0.00 0.07 0.07 84 1012.2
20260508154703 54 238 5.2 7.0 0.00 0.07 0.07 84 1012.1
20260508154159 54 233 6.1 9.6 0.00 0.07 0.07 85 1012.3
20260508153656 54 222 5.2 9.6 0.00 0.07 0.07 86 1012.2
20260508153153 54 211 7.0 8.7 0.00 0.07 0.07 86 1012.0
20260508152650 54 228 7.8 7.8 0.00 0.07 0.07 87 1012.0
20260508152145 53 197 6.1 8.7 0.02 0.07 0.07 87 1012.0
20260508151642 54 234 4.3 7.0 0.02 0.07 0.07 87 1011.9
20260508151139 54 206 7.0 7.8 0.00 0.07 0.07 88 1012.0
20260508150636 53 223 7.0 8.7 0.00 0.07 0.07 88 1012.1
20260508150132 53 236 6.1 6.1 0.00 0.07 0.07 89 1012.2
20260508145628 53 202 3.5 5.2 0.00 0.07 0.07 89 1012.3
20260508145125 53 214 3.5 5.2 0.00 0.07 0.07 89 1012.2
20260508144623 53 214 3.5 7.8 0.00 0.07 0.07 89 1012.1
20260508144120 53 226 6.1 7.8 0.00 0.07 0.07 90 1012.3
20260508143617 51 204 2.6 2.6 0.00 0.07 0.07 91 1012.5
20260508143114 51 236 6.1 6.1 0.00 0.07 0.07 91 1012.3
20260508142610 51 217 5.2 5.2 0.02 0.07 0.07 91 1012.6
20260508142107 50 199 1.7 3.5 0.02 0.07 0.07 91 1012.5
20260508141604 51 225 4.3 5.2 0.00 0.07 0.07 91 1012.5
20260508141102 50 222 2.6 3.5 0.00 0.07 0.07 90 1012.8
20260508140558 50 219 5.2 5.2 0.00 0.07 0.07 90 1012.9
20260508140055 50 224 3.5 4.3 0.00 0.07 0.07 88 1013.0
20260508135550 50 224 3.5 4.3 0.00 0.07 0.07 88 1012.9
20260508135047 50 224 3.5 4.3 0.00 0.07 0.07 88 1012.8
20260508134544 50 224 3.5 4.3 0.00 0.07 0.07 88 1012.9
20260508134041 50 224 3.5 4.3 0.00 0.07 0.07 88 1013.0
20260508133537 50 231 3.5 3.5 0.00 0.07 0.07 88 1012.7
20260508133035 50 231 3.5 3.5 0.02 0.07 0.07 88 1012.7
20260508132533 50 240 5.2 5.2 0.02 0.07 0.07 88 1012.4
20260508132029 50 240 5.2 5.2 0.00 0.06 0.06 88 1012.6
20260508131524 50 240 5.2 5.2 0.00 0.06 0.06 88 1012.7
20260508131021 50 217 3.5 5.2 0.00 0.06 0.06 88 1012.8
20260508130519 50 243 2.6 3.5 0.00 0.06 0.06 88 1012.9
20260508130015 49 219 0.9 1.7 0.00 0.06 0.06 89 1012.5
20260508125511 49 219 0.9 1.7 0.00 0.06 0.06 89 1012.5
20260508125009 49 219 0.9 1.7 0.02 0.06 0.06 89 1012.4
20260508124506 49 219 0.9 1.7 0.02 0.06 0.06 89 1012.5
20260508124003 49 219 0.9 1.7 0.00 0.06 0.06 89 1012.4
20260508123502 49 219 0.9 1.7 0.00 0.06 0.06 89 1012.5
20260508122958 49 247 1.7 4.3 0.00 0.06 0.06 89 1012.5
20260508122455 49 221 3.5 3.5 0.00 0.06 0.06 88 1012.7
20260508121952 49 230 4.3 4.3 0.00 0.06 0.06 88 1012.7
20260508121450 49 232 1.7 2.6 0.00 0.06 0.06 89 1012.6
20260508120948 48 233 4.3 5.2 0.00 0.06 0.06 89 1012.4
20260508120445 48 223 3.5 4.3 0.02 0.06 0.06 89 1012.4
20260508115943 48 227 2.6 2.6 0.02 0.06 0.06 89 1012.4
20260508115441 48 264 1.7 2.6 0.00 0.06 0.06 90 1012.2
20260508114937 48 264 1.7 5.2 0.00 0.06 0.06 90 1012.3
20260508114434 47 222 3.5 3.5 0.00 0.06 0.06 91 1012.3
20260508113930 47 237 3.5 4.3 0.00 0.06 0.06 90 1012.3
20260508113428 47 222 3.5 3.5 0.00 0.06 0.06 90 1012.4
20260508112925 47 214 2.6 2.6 0.00 0.06 0.06 90 1012.2
20260508112422 47 214 2.6 2.6 0.02 0.06 0.06 90 1012.2
20260508111919 47 224 1.7 2.6 0.02 0.06 0.06 90 1012.1
20260508111416 47 224 3.5 3.5 0.00 0.05 0.05 91 1012.0
20260508110913 46 237 3.5 5.2 0.00 0.05 0.05 91 1012.2
20260508110411 46 228 2.6 3.5 0.00 0.05 0.05 92 1012.1
20260508105910 46 217 2.6 3.5 0.00 0.05 0.05 92 1012.1
20260508105406 46 233 1.7 2.6 0.00 0.05 0.05 92 1012.3
20260508104904 46 224 0.0 0.0 0.00 0.05 0.05 91 1012.1
20260508104401 46 225 1.7 1.7 0.00 0.05 0.05 91 1012.0
20260508103858 46 233 1.7 2.6 0.02 0.05 0.05 91 1011.9
20260508103355 46 257 0.9 0.9 0.02 0.05 0.05 91 1012.1
20260508102852 46 315 0.0 0.0 0.00 0.05 0.05 90 1012.0
20260508102350 47 233 1.7 1.7 0.00 0.05 0.05 89 1012.1
20260508101847 47 233 1.7 1.7 0.00 0.05 0.05 89 1012.1
20260508101344 47 233 1.7 1.7 0.00 0.05 0.05 89 1011.8
20260508100842 47 246 2.6 4.3 0.00 0.05 0.05 89 1011.7
20260508100341 47 223 6.1 7.8 0.00 0.05 0.05 89 1011.9
20260508095836 47 223 6.1 7.8 0.00 0.05 0.05 89 1011.8
20260508095334 47 229 5.2 5.2 0.02 0.05 0.05 89 1011.8
20260508094831 47 238 3.5 4.3 0.02 0.05 0.05 89 1011.7
20260508094327 47 242 7.0 7.8 0.00 0.04 0.04 89 1012.0
20260508093825 47 248 1.7 6.1 0.00 0.04 0.04 89 1011.9
20260508093322 47 235 5.2 9.6 0.00 0.04 0.04 88 1011.7
20260508092819 47 226 7.0 9.6 0.00 0.04 0.04 89 1011.8
20260508092317 47 231 7.8 8.7 0.00 0.04 0.04 89 1012.1
20260508091815 47 219 5.2 5.2 0.00 0.04 0.04 89 1011.9
20260508091311 46 223 3.5 3.5 0.02 0.04 0.04 90 1012.0
20260508090809 46 241 2.6 3.5 0.02 0.04 0.04 91 1012.1
20260508090307 45 232 1.7 2.6 0.00 0.04 0.04 92 1012.1
20260508085803 45 232 1.7 2.6 0.00 0.04 0.04 92 1012.2
20260508085300 45 204 1.7 1.7 0.00 0.04 0.04 91 1011.9
20260508084755 45 234 1.7 2.6 0.00 0.04 0.04 91 1012.0
20260508084253 45 233 1.7 2.6 0.00 0.04 0.04 92 1011.9
20260508083751 45 245 2.6 2.6 0.00 0.04 0.04 92 1012.1
20260508083248 45 224 1.7 3.5 0.02 0.04 0.04 91 1011.9
20260508082748 45 241 2.6 2.6 0.02 0.04 0.04 91 1012.0
20260508082246 45 246 1.7 3.5 0.00 0.04 0.04 91 1012.0
20260508081743 45 230 2.6 3.5 0.00 0.04 0.04 90 1012.0
20260508081239 45 230 2.6 5.2 0.00 0.04 0.04 90 1012.0
20260508080737 45 229 4.3 5.2 0.00 0.04 0.04 91 1012.3
20260508080235 45 262 3.5 3.5 0.00 0.04 0.04 90 1012.1
20260508075731 45 244 1.7 3.5 0.02 0.04 0.04 91 1012.2
20260508075228 45 248 4.3 4.3 0.02 0.04 0.04 91 1012.1
20260508074726 45 233 4.3 4.3 0.00 0.03 0.03 91 1012.1
20260508074223 45 214 1.7 2.6 0.00 0.03 0.03 91 1011.9
20260508073719 45 281 0.0 1.7 0.00 0.03 0.03 91 1012.0
20260508073218 45 269 0.0 2.6 0.00 0.03 0.03 91 1012.0
20260508072713 45 269 0.0 1.7 0.00 0.03 0.03 91 1012.1
20260508072210 45 269 0.0 2.6 0.02 0.03 0.03 91 1012.0
20260508071708 45 255 0.9 2.6 0.02 0.03 0.03 91 1012.1
20260508071206 46 217 2.6 2.6 0.00 0.03 0.03 90 1012.1
20260508070703 46 217 2.6 2.6 0.00 0.03 0.03 90 1012.1
20260508070202 46 225 4.3 5.2 0.00 0.03 0.03 90 1012.0
20260508065658 46 203 3.5 4.3 0.00 0.03 0.03 90 1012.1
20260508065156 46 213 2.6 3.5 0.00 0.03 0.03 90 1012.1
20260508064654 46 193 3.5 4.3 0.02 0.03 0.03 91 1012.1
20260508064152 46 193 3.5 4.3 0.02 0.03 0.03 91 1012.1
20260508063649 46 193 3.5 4.3 0.00 0.02 0.02 91 1012.2
20260508063147 46 193 3.5 4.3 0.00 0.02 0.02 91 1012.1
20260508062644 46 193 3.5 4.3 0.00 0.02 0.02 91 1012.2
20260508062141 46 204 3.5 4.3 0.00 0.02 0.02 91 1012.3
20260508061638 46 194 2.6 5.2 0.02 0.02 0.02 92 1012.2
20260508061135 45 183 2.6 2.6 0.00 0.02 0.02 93 1012.3
20260508060632 45 208 0.9 1.7 0.00 0.02 0.02 94 1012.3
20260508060129 45 190 0.9 1.7 0.00 0.02 0.02 94 1012.4
20260508055624 45 199 2.6 2.6 0.00 0.02 0.02 94 1012.3
20260508055122 45 164 1.7 1.7 0.02 0.02 0.02 94 1012.4
20260508054618 45 164 1.7 2.6 0.02 0.02 0.02 94 1012.4
20260508054116 45 166 2.6 2.6 0.00 0.02 0.02 94 1012.4